Weather History for KPGA - March, 2014

Change the Weather History Date:

Wednesday, March 19, 2014

  Actual Average Record
Temperature  
Mean Temperature 45 °F -  
Max Temperature 57 °F 59 °F 79 °F (1972)
Min Temperature 33 °F 37 °F 23 °F (1971)
Degree Days  
Heating Degree Days 20    
Moisture  
Dew Point 6 °F    
Average Humidity 19    
Maximum Humidity 31    
Minimum Humidity 4    
Precipitation  
Precipitation 0.00 in - - ()
Sea Level Pressure  
Sea Level Pressure 30.14 in    
Wind  
Wind Speed 4 mph (NW)    
Max Wind Speed 10 mph    
Max Gust Speed -    
Visibility 10 miles    
Events      
Averages and records for this station are not official NWS values.
T = Trace of Precipitation, MM = Missing Value Source: NWS Daily Summary

Daily Weather History Graph

Daily Weather History Graph

Search for Another Location

Airport or City:

Trip Planner

Search our weather history database for the weather conditions in past years. The results will help you decide how hot, cold, wet, or windy it might be!

Date:

Astronomy

Mar. 19, 2014 Rise Set
Actual Time 6:30 AM MST 6:36 PM MST
Civil Twilight 6:04 AM MST 7:02 PM MST
Nautical Twilight 5:34 AM MST 7:32 PM MST
Astronomical Twilight 5:04 AM MST 8:03 PM MST
Moon 9:53 PM MST (3/19) 8:03 AM MST (3/19)
Length of Visible Light 12h 57m
Length of Day
12h 06m
Waning Gibbous, 90% of the Moon is Illuminated
Mar 19
Waning Gibbous
Mar 23
Last Quarter
Mar 30
New
Apr 7
First Quarter
Apr 15
Full

Hourly Weather History & Observations

Time (MST) Temp. Windchill Dew Point Humidity Pressure Visibility Wind Dir Wind Speed Gust Speed Precip Events Conditions
12:53 AM 42.1 °F 38.4 °F 6.1 °F 23% 30.04 in 10.0 mi West 5.8 mph - N/A   Clear
1:53 AM 41.0 °F 38.0 °F 7.0 °F 25% 30.07 in 10.0 mi WNW 4.6 mph - N/A   Clear
2:53 AM 39.0 °F 34.8 °F 6.1 °F 26% 30.07 in 10.0 mi West 5.8 mph - N/A   Clear
3:53 AM 37.0 °F - 7.0 °F 29% 30.11 in 10.0 mi Calm Calm - N/A   Clear
4:53 AM 36.0 °F - 7.0 °F 30% 30.13 in 10.0 mi Calm Calm - N/A   Clear
5:53 AM 34.0 °F 31.0 °F 6.1 °F 31% 30.16 in 10.0 mi SSE 3.5 mph - N/A   Clear
6:53 AM 36.0 °F - 6.1 °F 29% 30.20 in 4.0 mi Calm Calm - N/A   Haze
7:53 AM 39.0 °F - 6.1 °F 26% 30.23 in 10.0 mi Calm Calm - N/A   Clear
8:53 AM 43.0 °F 41.3 °F 5.0 °F 21% 30.23 in 10.0 mi NW 3.5 mph - N/A   Clear
9:53 AM 46.0 °F 44.8 °F 7.0 °F 20% 30.22 in 10.0 mi Variable 3.5 mph - N/A   Clear
10:53 AM 48.9 °F - 9.0 °F 20% 30.21 in 10.0 mi ENE 4.6 mph - N/A   Clear
11:53 AM 50.0 °F - 8.1 °F 18% 30.19 in 10.0 mi North 8.1 mph - N/A   Clear
12:53 PM 54.0 °F - 8.1 °F 16% 30.15 in 10.0 mi North 10.4 mph - N/A   Clear
1:53 PM 55.0 °F - 6.1 °F 14% 30.13 in 10.0 mi North 9.2 mph - N/A   Clear
2:53 PM 55.0 °F - 3.9 °F 13% 30.11 in 10.0 mi Variable 5.8 mph - N/A   Clear
3:53 PM 57.0 °F - 3.0 °F 11% 30.10 in 10.0 mi North 5.8 mph - N/A   Clear
4:53 PM 57.0 °F - 3.0 °F 11% 30.10 in 10.0 mi NNE 8.1 mph - N/A   Clear
5:53 PM 57.0 °F - 3.9 °F 12% 30.11 in 10.0 mi Variable 5.8 mph - N/A   Clear
6:53 PM 53.1 °F - 1.9 °F 12% 30.12 in 10.0 mi Calm Calm - N/A   Clear
7:53 PM 50.0 °F - 3.9 °F 15% 30.12 in 10.0 mi South 3.5 mph - N/A   Clear
8:53 PM 48.0 °F - 5.0 °F 17% 30.12 in 9.0 mi SW 3.5 mph - N/A   Clear
9:53 PM 45.0 °F 42.6 °F 6.1 °F 20% 30.12 in 7.0 mi SE 4.6 mph - N/A   Clear
10:53 PM 45.0 °F - 6.1 °F 20% 30.12 in 8.0 mi Calm Calm - N/A   Clear
11:53 PM 45.0 °F - 5.0 °F 19% 30.11 in 10.0 mi Calm Calm - N/A   Clear